User: anonymous   Login
Location: Sperry Observatory
(40.6664°N, 74.3236°W)
Time: 19:38:19
(UTC-05:00)
Language:

UOSAT-12 - Orbit

View from above orbital plane
View from above orbital plane
View from above satellite
View from above satellite

Ground track
Ground track

The orbit data is extracted from the following two-line orbital elements,

1 25693U 99021A   17051.48258606 -.00000038  00000-0  13883-4 0  9998
2 25693  64.5561 125.3631 0023761 323.5731  36.3756 14.80715228962889
Epoch (UTC): 20 February 2017 11:34:55
Eccentricity: 0.0023761
inclination: 64.5561°
perigee height: 610 km
apogee height: 644 km
right ascension of ascending node: 125.3631°
argument of perigee: 323.5731°
revolutions per day: 14.80715228
mean anomaly at epoch: 36.3756°
orbit number at epoch: 96288

The dashed part of the orbit path shows where the satellite is in the earth's shadow,  

DLR